Regional Weather Roundup
Issued by NWS

Home | Current Version | Previous Version | Text Only | Print | Product List | Glossary On
Versions: 1 2 3 4 5 6 7 8 9 10 11 12 13 14 15 16 17 18 19 20 21 22 23 24 25 26 27 28 29 30 31 32 33 34 35 36 37 38 39 40 41 42 43 44 45 46 47 48 49 50
162
ASUS43 KOAX 120510
RWRNE

WEATHER ROUNDUP FOR NEBRASKA
NATIONAL WEATHER SERVICE OMAHA NE
1100 PM CST THU FEB 11 2016

NOTES: SATELLITE DATA IS BEING USED TO AUGMENT CLOUD COVER ABOVE
       12000 FEET.
       "FAIR" INDICATES FEW OR NO CLOUDS BELOW 12,000 FEET WITH NO
       SIGNIFICANT WEATHER AND/OR OBSTRUCTIONS TO VISIBILITY.

  * THESE STATIONS DO NOT REPORT WEATHER SUCH AS RAIN...SNOW OR FOG.

NEZ001>004-019>022-054>056-120600-
NEBRASKA PANHANDLE

CITY           SKY/WX    TMP DP  RH WIND       PRES   REMARKS
SCOTTSBLUFF    CLEAR     32  26  78 NW7       30.23R WCI  26
ALLIANCE       PTCLDY    33  27  78 CALM      30.21R
CHADRON        CLOUDY    32  27  81 CALM      30.23R
KIMBALL        CLOUDY    37  27  67 NW13      30.24R WCI  28
SIDNEY         CLOUDY    35  28  75 W13       30.24R WCI  26
$$

NEZ057>060-069>072-079>082-120600-
SOUTHWEST NEBRASKA

CITY           SKY/WX    TMP DP  RH WIND       PRES   REMARKS
NORTH PLATTE   CLEAR     36  29  75 NW7       30.20R WCI  30
IMPERIAL       CLOUDY    39  28  64 NW10      30.21R WCI  32
LEXINGTON      CLOUDY    31  27  86 NW7       30.20R WCI  24
MCCOOK         CLOUDY    35  29  78 NW13      30.19R WCI  26
OGALLALA       CLOUDY    36  27  71 CALM      30.22R
$$

NEZ005>010-023>029-035>040-094-120600-
NORTH CENTRAL NEBRASKA

CITY           SKY/WX    TMP DP  RH WIND       PRES   REMARKS
VALENTINE      CLOUDY    29  26  89 N3        30.23R
AINSWORTH      CLOUDY    29  28  96 N6        30.22R FOG     WCI  23
BROKEN BOW     CLOUDY    33  29  85 NW9       30.20R WCI  25
O`NEILL        CLOUDY    27  26  95 N8        30.23R WCI  19
ORD            CLOUDY    31  27  85 N10       30.21R WCI  22
THEDFORD       CLOUDY    32  30  93 W3        30.22R
$$

NEZ041-046>049-061>064-073>077-083>087-120600-
SOUTH CENTRAL NEBRASKA

CITY           SKY/WX    TMP DP  RH WIND       PRES   REMARKS
GRAND ISLAND   CLEAR     32  27  81 NW16      30.20R WCI  21
AURORA         CLEAR     32  29  90 NW17      30.18R WCI  21
HASTINGS       CLOUDY    30  26  85 NW9       30.16R WCI  22
HEBRON         PTCLDY    25  24  96 W5        30.18R FOG     WCI  20
HOLDREGE       CLOUDY    32  29  88 NW7       30.19R WCI  25
KEARNEY *      CLOUDY    34  30  86 NW7       30.19R WCI  28
YORK           PTCLDY    23  23 100 CALM      30.18R FOG
$$

NEZ011>018-030>034-042>045-120600-
NORTHEAST NEBRASKA

CITY           SKY/WX    TMP DP  RH WIND       PRES   REMARKS
NORFOLK        CLOUDY    26  23  88 NW5       30.20R FOG     WCI  20
ALBION         CLOUDY    29  26  87 N7        30.20R WCI  22
BLAIR          CLOUDY    24  20  85 NE5       30.20R WCI  18
COLUMBUS *     CLOUDY    27  18  69 CALM      30.20R
FREMONT        CLOUDY    24  20  84 CALM      30.22R
TEKAMAH        CLOUDY    20  18  92 N6        30.24R WCI  12
WAYNE          CLOUDY    20  17  88 CALM      30.22S
$$

NEZ050>053-065>068-078-088>093-120600-
SOUTHEAST NEBRASKA

CITY           SKY/WX    TMP DP  RH WIND       PRES   REMARKS
LINCOLN        CLOUDY    29  24  82 E5        30.20S WCI  24
OMAHA EPPLEY   CLOUDY    25  19  78 NE3       30.22S
BEATRICE       PTCLDY    25  23  93 NE3       30.18R
FALLS CITY     CLOUDY    30  23  75 CALM      30.18S
NEBRASKA CITY  CLOUDY    30  26  83 N7        30.20R WCI  23
PLATTSMOUTH    CLOUDY    27  23  84 N5        30.20R WCI  22
$$

NEZ044-045-051>053-067-120600-
OMAHA AREA

CITY           SKY/WX    TMP DP  RH WIND       PRES   REMARKS
OMAHA EPPLEY   CLOUDY    25  19  78 NE3       30.22S
BLAIR          CLOUDY    24  20  85 NE5       30.20R WCI  18
FREMONT        CLOUDY    24  20  84 CALM      30.22R
MILLARD        CLOUDY    27  21  77 CALM      30.22R
OFFUTT AFB     CLOUDY    26  20  79 NE7       30.21R WCI  18
PLATTSMOUTH    CLOUDY    27  23  84 N5        30.20R WCI  22
WAHOO          CLOUDY    28  26  91 NE5       30.21R WCI  23
$$




USA.gov is the U.S. government's official web portal to all federal, state and local government web resources and services.